Location: Bailen
(14.1842°N, 120.7958°E)
Time: 17:57:58
(UTC+00:00)

Cosmos 2184 Rocket - Pass Details

Date: 12 January 2026
Orbit: 959 x 1001 km, 82.9° (Epoch: 17 February)

Event Time Altitude Azimuth Distance (km) Brightness Sun altitude
Rises 21:15:13 0° 178° (S) 3,686 7.3 -16.6°
Reaches altitude 10° 21:17:45 10° 175° (S) 2,732 6.6 -16.0°
Maximum altitude 21:23:58 70° 93° (E) 1,030 4.3 -14.6°
Drops below altitude 10° 21:30:07 10° 10° (N) 2,705 6.2 -13.2°
Sets 21:32:37 0° 8° (N) 3,647 6.9 -12.6°
